Location: Hamilton
(37.7830°S, 175.2830°E)
Time: 16:37:58
(UTC+12:00)

SL-16 R/B - Visible Passes

Search period start: 20 April 2019 00:00
Search period end: 30 April 2019 00:00
Orbit: 842 x 846 km, 71.0° (Epoch: 19 April)

Date Brightness Start Highest point End Pass type
(mag) Time Alt. Az. Time Alt. Az. Time Alt. Az.
20 Apr 4.9 03:04:48 12° SSE 03:04:48 12° SSE 03:05:10 10° SSE visible
20 Apr 4.1 04:46:42 16° SSW 04:46:42 16° SSW 04:48:22 10° S visible
21 Apr 4.3 04:33:09 14° SSW 04:33:09 14° SSW 04:34:07 10° S visible
22 Apr 4.5 04:19:31 11° S 04:19:31 11° S 04:19:53 10° S visible
